DW6099 Weather Reports


Display with metric or nautical units.
time (UTC)temp
F
wind
direction
speed
MPH
gust
MPH
rain 1hr
in
rain 24hr
in
rain mn
in
humidity
%
barometer
mb
20260505024510 63 334 0.0 0.0 0.00 0.00 0.00 71 1002.4
20260505023010 63 347 0.0 0.0 0.00 0.00 0.00 72 1002.4
20260505021513 64 347 0.0 0.0 0.00 0.00 0.00 71 1002.4
20260505020016 65 347 0.0 0.0 0.00 0.00 0.00 70 1002.4
20260505014511 66 259 0.0 5.0 0.00 0.00 0.00 68 1002.4
20260505013009 68 241 0.0 6.0 0.00 0.00 0.00 65 1002.4
20260505011508 68 265 2.0 9.0 0.00 0.00 0.00 63 1002.4
20260505010008 69 265 4.0 9.0 0.00 0.00 0.00 62 1002.4
20260505004513 70 274 4.0 11.0 0.00 0.00 0.00 62 1002.4
20260505003007 71 269 3.0 9.0 0.00 0.00 0.00 60 1002.4
20260505001505 71 262 3.0 10.0 0.00 0.00 0.00 60 1002.4
20260505000008 72 257 3.0 9.0 0.00 0.00 0.00 59 1002.4
20260504234503 72 253 0.0 8.0 0.00 0.00 0.00 61 1002.4
20260504233003 72 271 1.0 7.0 0.00 0.00 0.00 59 1002.4
20260504231501 73 258 2.0 9.0 0.00 0.00 0.00 59 1002.4
20260504230003 74 277 1.0 9.0 0.00 0.00 0.00 57 1002.4
20260504224501 74 227 0.0 5.0 0.00 0.00 0.00 58 1002.4
20260504223102 74 235 3.0 9.0 0.00 0.00 0.00 57 1002.4
20260504221600 74 263 2.0 7.0 0.00 0.00 0.00 56 1002.4
20260504214605 73 213 6.0 10.0 0.00 0.00 0.00 57 1002.4
20260504213057 74 186 4.0 8.0 0.00 0.00 0.00 59 1002.4
20260504211552 73 157 2.0 8.0 0.00 0.00 0.00 62 1002.4
20260504204606 71 194 0.0 5.0 0.00 0.00 0.00 61 1002.4
20260504203101 71 197 2.0 7.0 0.00 0.00 0.00 62 1002.4
20260504201542 69 172 0.0 1.0 0.00 0.00 0.00 66 1002.4
20260504200038 67 205 4.0 7.0 0.00 0.00 0.00 67 1002.4
20260504194534 65 248 1.0 8.0 0.00 0.00 0.00 70 1002.4
20260504193031 64 169 0.0 2.0 0.00 0.00 0.00 70 1002.4
20260504191531 63 228 0.0 2.0 0.00 0.00 0.00 72 1002.4
20260504190025 62 149 1.0 6.0 0.00 0.00 0.00 74 1002.4
20260504184526 61 201 0.0 7.0 0.00 0.00 0.00 75 1002.4
20260504183023 60 239 0.0 7.0 0.00 0.00 0.00 76 1002.4
20260504181523 60 216 1.0 6.0 0.00 0.00 0.00 78 1002.4
20260504180023 59 208 1.0 7.0 0.00 0.00 0.00 79 1002.4
20260504174522 58 184 3.0 7.0 0.00 0.00 0.00 80 1002.4
20260504173022 58 163 1.0 6.0 0.00 0.00 0.00 81 1002.4
20260504171521 57 196 1.0 4.0 0.00 0.00 0.00 82 1002.4
20260504081541 57 204 2.0 6.0 0.00 0.00 0.00 79 1002.4
20260504050022 71 214 0.0 4.0 0.00 0.00 0.00 56 1002.4
20260504044524 72 276 0.0 3.0 0.00 0.00 0.00 54 1002.4
20260504043021 74 231 0.0 0.0 0.00 0.00 0.00 53 1002.4
20260504041536 74 232 0.0 0.0 0.00 0.00 0.00 52 1002.4
20260504040022 75 258 0.0 0.0 0.00 0.00 0.00 51 1002.4
20260504034520 76 263 0.0 0.0 0.00 0.00 0.00 52 1002.4
20260504033019 78 263 0.0 0.0 0.00 0.00 0.00 49 1002.4
20260504031520 80 265 0.0 0.0 0.00 0.00 0.00 47 1002.4
20260504030020 81 265 0.0 0.0 0.00 0.00 0.00 46 1002.4